Regional Weather Roundup
Issued by NWS

Home | Current Version | Previous Version | Text Only | Print | Product List | Glossary Off
Versions: 1 2 3 4 5 6 7 8 9 10 11 12 13 14 15 16 17 18 19 20 21 22 23 24 25 26 27 28 29 30 31 32 33 34 35 36 37 38 39 40 41 42 43 44 45 46 47 48 49 50

617
ASUS43 KLMK 290510
RWRKY
KENTUCKY REGIONAL WEATHER ROUNDUP
NATIONAL WEATHER SERVICE LOUISVILLE KY
100 AM EDT WED MAR 29 2017

NOTE "FAIR" INDICATES FEW OR NO CLOUDS BELOW 12,000 FEET
WITH NO SIGNIFICANT WEATHER AND/OR OBSTRUCTIONS TO VISIBILITY.

KYZ001>023-026-027-061>063-070>075-290600-
WESTERN AND SOUTH CENTRAL KENTUCKY

CITY           SKY/WX    TMP DP  RH WIND       PRES   REMARKS
PADUCAH        PTCLDY    54  49  83 NE5       30.06R
HENDERSON      CLOUDY    55  48  76 NE6       30.07S
OWENSBORO        N/A    N/A N/A N/A MISG        N/A
HOPKINSVILLE   CLEAR     52  52 100 CALM      30.05F FOG
BOWLING GREEN  CLOUDY    57  54  89 CALM      30.06F
GLASGOW        CLEAR     56  56 100 NE6       30.07F
$$

KYZ024-025-028>034-038-045-046-053-290600-
NORTH CENTRAL KENTUCKY

CITY           SKY/WX    TMP DP  RH WIND       PRES   REMARKS
LOUISVILLE/SDF MOCLDY    56  47  71 NE8       30.10F
LOUISVILLE/LOU CLEAR     55  48  77 N5        30.11S
FORT KNOX      CLEAR     54  48  82 NE9       30.07F
$$

KYZ035>037-039>044-047>052-055>060-089>105-290600-
NORTHEAST KENTUCKY

CITY           SKY/WX    TMP DP  RH WIND       PRES   REMARKS
LEXINGTON      CLOUDY    52  48  86 N8        30.11S FOG
COVINGTON      CLOUDY    52  47  83 NE10      30.13F
FRANKFORT      CLEAR     53  48  83 NE6       30.10S
$$

KYZ054-064>069-076>088-106>120-290600-
SOUTHEAST KENTUCKY

CITY           SKY/WX    TMP DP  RH WIND       PRES   REMARKS
JACKSON        CLOUDY    56  52  86 VRB3      30.09S
LONDON         CLEAR     53  50  89 N3        30.08F
SOMERSET       MOCLDY    54  50  87 E7        30.09F
MIDDLESBORO    CLEAR     53  51  93 CALM      30.08S
MONTICELLO     CLEAR     55  52  89 W8        30.10S
$$





USA.gov is the U.S. government's official web portal to all federal, state and local government web resources and services.